EST,Max TemperatureF,Mean TemperatureF,Min TemperatureF,Max Dew PointF,MeanDew PointF,Min DewpointF,Max Humidity, Mean Humidity, Min Humidity, Max Sea Level PressureIn, Mean Sea Level PressureIn, Min Sea Level PressureIn, Max VisibilityMiles, Mean VisibilityMiles, Min VisibilityMiles, Max Wind SpeedMPH, Mean Wind SpeedMPH, Max Gust SpeedMPH,PrecipitationIn, CloudCover, Events, WindDirDegrees
2013-2-1,33,28,21,14,7,1,51,40,27,30.15,29.88,29.70,10,10,10,18,14,33,0.00,2,,293
2013-2-2,30,24,18,23,13,6,88,59,46,30.28,30.16,30.07,10,8,2,18,9,28,0.00,4,Snow,262
2013-2-3,34,28,21,21,17,12,92,68,44,30.07,29.88,29.75,10,8,3,10,6,,0.00,2,,330
2013-2-4,32,26,21,15,8,3,75,47,32,29.97,29.87,29.76,10,10,8,22,10,28,0.00,2,,291
2013-2-5,27,26,24,25,20,6,93,79,41,30.01,29.96,29.91,10,6,2,9,6,,0.00,8,Snow,23
2013-2-6,41,34,26,32,22,-1,100,73,29,30.32,30.06,29.91,10,6,2,15,6,28,0.00,5,Snow,314
2013-2-7,30,24,19,18,7,-2,66,44,31,30.52,30.45,30.34,10,10,10,12,7,,0.00,3,,30
2013-2-8,34,30,24,34,32,18,100,97,69,30.38,29.87,29.46,10,2,0,37,19,60,0.50,8,Fog-Snow-Thunderstorm,46
2013-2-9,26,22,18,22,17,0,100,80,40,30.24,29.78,29.52,10,3,0,36,21,53,0.00,3,Fog-Snow,333
2013-2-10,32,21,10,18,8,-1,96,59,29,30.43,30.37,30.25,10,9,6,12,7,,0.00,0,,315
2013-2-11,45,32,18,45,37,16,100,98,88,30.35,29.90,29.65,8,2,0,21,5,17,0.24,7,Fog-Rain,190
2013-2-12,44,38,33,39,32,25,100,81,51,29.91,29.75,29.66,10,7,0,14,5,22,0.00,4,Fog,275
2013-2-13,37,32,28,30,25,22,82,70,55,29.91,29.82,29.67,10,10,8,13,6,,0.00,2,,269
2013-2-14,39,32,24,34,29,24,100,87,55,30.02,29.84,29.70,10,6,0,12,6,,0.04,1,Fog-Snow,313
2013-2-15,45,34,24,40,34,25,100,97,76,30.04,30.00,29.93,7,4,1,16,4,,0.00,2,,217
2013-2-16,37,34,30,34,32,25,100,93,73,29.93,29.86,29.66,10,5,1,16,5,23,0.00,7,Snow,1
2013-2-17,30,24,18,27,21,14,100,85,68,29.80,29.59,29.48,10,6,1,30,19,41,0.00,4,Snow,319
2013-2-18,32,24,17,18,18,18,100,100,100,30.21,30.07,29.82,10,10,10,28,18,44,0.00,0,,293
2013-2-19,44,32,19,45,38,17,100,93,64,30.21,29.85,29.62,10,6,2,15,7,17,0.15,5,Rain,210
2013-2-20,41,34,26,41,20,7,100,60,38,29.88,29.72,29.61,10,10,8,21,11,33,0.00,5,,283
2013-2-21,34,29,24,16,13,11,63,55,43,30.22,29.96,29.86,10,10,10,25,15,34,0.00,1,,298
2013-2-22,37,30,23,29,23,15,79,69,57,30.38,30.33,30.23,10,10,9,15,9,22,0.00,2,,62
2013-2-23,39,36,34,37,35,28,100,94,79,30.31,30.08,29.81,10,7,2,15,10,23,0.02,8,Rain,82
2013-2-24,39,36,33,40,37,33,100,99,93,29.90,29.75,29.67,10,5,2,20,13,28,0.00,8,Rain-Snow,346
2013-2-25,42,36,30,34,32,29,100,88,70,30.25,30.08,29.90,10,8,7,10,7,,0.00,6,,323
2013-2-26,41,34,28,38,34,29,100,89,73,30.32,30.24,30.05,10,9,5,20,6,25,0.00,6,Rain,80
2013-2-27,44,40,37,45,43,38,100,100,100,29.99,29.67,29.56,9,3,0,34,20,54,0.72,8,Fog-Rain,76
2013-2-28,45,41,37,44,42,39,100,100,97,29.63,29.59,29.54,10,8,5,9,4,,0.00,6,Rain,297